Theta_e
353 353 353 353 353 352 348 349 351 350 348 345 345 344 345 346 347 347 348 348 349 349 349 349 349 350 350 351 351 350 350 350 349 348 348 348 347 347 346 345 343 342 342 343 343 344 348 350 348 344 341 340 341 343 346 348 349 350 349 348 349 348 348 350 351 349 349 348 348 348 348 349 350 350 351 352 352 352 352 350 348 349 350 352 350
353 353 352 352 353 350 348 350 350 350 349 347 345 345 347 348 347 348 349 349 349 349 349 350 350 350 351 350 351 351 351 349 349 349 350 349 348 347 347 345 342 341 340 340 340 344 350 352 350 347 343 342 342 344 346 347 349 351 350 348 347 348 349 350 349 349 347 345 346 347 348 349 349 351 351 352 352 351 351 350 348 349 352 352 350
352 354 353 352 353 350 348 350 351 350 350 346 344 347 348 347 348 349 349 349 349 350 350 350 351 350 350 351 351 352 351 350 350 350 350 349 349 349 348 345 340 338 338 339 341 347 351 351 351 349 345 343 344 346 348 348 348 350 350 349 348 349 349 349 348 347 346 346 347 349 349 349 350 350 350 351 351 350 351 350 349 351 351 351 349
354 355 354 354 353 350 349 351 351 351 349 344 345 348 348 348 349 349 350 349 349 350 350 350 351 351 351 352 352 352 352 352 352 351 351 350 350 350 350 349 346 344 344 345 348 350 351 351 350 349 347 343 342 346 349 349 349 350 350 350 350 349 348 347 346 346 345 346 347 348 349 350 350 349 349 351 350 350 351 351 351 351 351 349 348
354 354 354 354 353 351 351 351 352 351 347 343 346 348 348 349 349 350 349 349 350 351 350 350 351 352 352 351 352 352 351 352 352 352 352 351 351 351 351 352 351 350 351 350 350 351 351 351 349 348 347 344 340 344 349 349 349 350 349 349 348 348 348 348 347 347 345 345 346 347 348 349 350 349 349 351 351 350 351 352 351 351 350 349 348
353 353 354 354 353 354 353 352 352 349 344 345 348 348 348 350 350 349 349 349 350 351 351 351 351 352 352 351 353 353 352 352 352 353 353 353 353 352 352 353 352 352 351 351 350 349 349 351 349 348 346 344 341 341 347 349 350 349 348 347 348 349 349 350 349 348 346 346 346 347 347 348 349 349 349 350 350 350 351 351 351 351 350 348 346
353 353 354 354 355 355 354 353 350 345 343 347 348 348 350 350 350 349 349 350 350 350 351 351 352 352 352 352 353 353 353 353 353 354 354 353 353 353 353 353 353 352 351 351 349 348 349 350 350 350 347 345 342 340 346 349 350 350 349 348 348 349 349 350 350 348 346 346 347 346 346 346 347 349 349 350 350 350 351 351 350 350 349 348 346
353 354 354 355 355 354 354 351 344 342 345 347 348 350 350 350 350 349 350 350 350 351 351 351 352 352 353 353 353 353 354 353 353 354 353 354 354 353 353 353 353 353 352 352 351 350 350 349 350 351 349 346 341 338 343 349 350 350 350 350 349 348 349 350 349 347 347 346 346 346 345 345 347 348 348 349 349 349 349 350 350 349 348 348 347
353 354 354 355 355 354 353 346 340 344 347 347 348 351 350 350 350 350 350 350 350 350 349 350 350 351 352 352 353 353 354 354 353 353 353 354 354 354 354 353 353 353 353 353 352 352 350 349 350 350 350 348 342 337 342 349 351 350 350 350 350 349 350 350 348 347 346 346 345 345 345 346 347 348 348 348 349 348 348 349 349 349 348 348 347
353 353 354 355 355 354 350 341 342 348 347 348 350 350 349 349 350 351 350 348 348 348 348 347 348 349 349 351 352 353 354 353 353 352 353 353 353 353 353 353 352 352 352 353 352 352 350 349 349 348 349 348 344 338 342 350 351 351 351 350 351 350 350 349 347 346 346 345 345 345 345 345 346 347 348 347 347 348 350 349 348 348 348 348 347
353 352 353 355 355 355 347 340 345 349 348 349 349 349 348 349 350 350 348 348 347 347 348 348 349 349 349 350 352 353 353 353 352 352 352 352 352 352 352 353 352 352 353 352 352 352 351 349 349 348 348 348 346 341 343 349 351 351 351 351 350 350 349 347 347 347 347 346 345 346 345 345 346 347 348 348 347 349 350 349 346 347 348 349 347
352 352 353 354 354 354 346 341 347 349 349 349 349 348 348 350 350 350 349 349 348 348 349 349 349 350 351 352 352 352 352 352 352 352 352 352 352 352 352 352 352 352 352 352 352 351 351 350 349 348 347 347 346 345 347 350 351 350 349 350 350 349 347 347 347 347 347 345 344 345 345 345 346 348 348 348 348 349 349 349 348 348 348 349 347
352 352 353 354 354 352 344 341 348 349 349 349 348 348 350 350 350 350 349 348 348 349 349 350 350 350 351 352 352 352 352 352 351 351 352 352 352 352 351 352 351 352 351 351 352 351 351 349 348 348 346 345 345 346 349 351 351 349 348 349 349 348 347 347 348 347 346 344 343 344 345 345 347 349 348 347 347 347 347 348 349 349 348 348 345
351 351 353 354 353 350 342 343 349 349 349 349 348 348 350 351 350 349 349 348 348 349 350 350 351 351 349 350 350 351 351 351 351 351 351 352 352 351 351 351 351 351 350 351 351 350 350 349 348 348 346 345 344 345 348 351 351 350 350 350 349 349 347 347 348 347 345 343 344 344 344 346 348 349 348 348 347 346 346 346 347 348 348 347 345
350 352 353 353 352 348 341 345 350 349 349 348 347 348 349 350 350 348 348 349 350 350 351 351 351 351 350 349 349 349 349 349 350 350 351 351 350 349 348 348 347 348 349 350 350 349 349 348 348 348 347 346 345 345 347 349 350 350 350 350 350 349 347 346 347 345 344 344 344 344 345 346 347 349 348 347 347 346 346 346 346 347 348 346 345
350 352 353 353 353 348 342 347 349 349 349 348 348 348 348 349 348 347 348 349 350 351 350 351 351 350 350 349 349 349 347 347 347 348 349 348 347 347 346 345 346 348 349 349 349 348 348 348 348 347 346 346 346 345 345 347 349 349 350 351 350 348 347 346 346 344 343 343 344 344 346 348 348 349 348 347 347 347 347 346 345 345 347 346 346
350 353 354 354 353 347 342 348 350 349 348 347 348 348 347 346 345 346 348 349 350 350 350 350 350 350 350 349 350 349 348 347 347 348 349 348 346 346 346 346 347 348 348 348 347 346 347 347 348 347 345 346 345 345 346 346 348 349 350 350 349 348 346 346 345 344 343 343 343 344 346 348 347 346 346 345 345 346 346 346 346 346 346 347 347
352 354 354 354 353 345 341 348 350 349 348 348 348 347 345 344 344 346 347 348 348 348 350 350 349 350 350 350 350 350 348 348 349 349 349 349 347 346 345 345 346 346 345 345 345 346 345 345 345 345 345 346 345 345 346 346 347 350 350 349 347 347 346 345 345 344 343 343 343 344 346 347 347 345 343 342 343 344 344 345 346 346 346 346 346
353 354 355 354 351 342 339 347 349 349 349 347 348 345 345 344 342 344 346 344 341 344 350 352 350 350 350 350 351 349 348 346 347 348 348 349 347 344 343 345 344 344 343 344 344 345 345 345 345 345 344 344 345 345 344 345 348 349 348 348 348 348 346 346 345 344 343 342 343 344 345 347 347 344 341 340 341 341 342 343 344 346 347 347 347
354 355 356 353 349 339 338 346 348 348 349 346 345 344 344 342 341 341 341 340 338 339 345 352 352 351 350 350 351 351 348 344 343 344 347 346 344 342 342 343 343 343 344 344 344 345 346 348 349 348 345 343 344 346 346 345 348 348 347 348 348 348 346 345 346 345 343 343 343 343 344 345 346 345 342 340 339 339 339 340 342 344 346 346 346
355 355 355 353 349 339 338 344 346 347 347 345 345 344 344 342 340 339 339 338 337 335 338 346 352 352 350 350 350 349 349 345 343 342 342 342 341 341 341 342 343 343 344 344 344 345 346 348 349 350 349 346 343 345 347 346 348 349 348 348 348 347 346 346 346 345 344 343 343 342 344 345 346 346 344 341 338 337 337 337 339 341 344 346 346
355 356 354 354 349 339 338 343 345 346 345 344 343 345 345 342 340 340 339 338 337 335 334 339 348 351 350 351 350 350 349 347 345 343 342 340 339 339 338 339 342 343 344 344 344 344 346 348 349 349 349 349 345 344 346 346 348 349 348 349 349 348 348 347 346 346 343 342 343 342 344 346 346 347 346 343 339 337 337 337 338 339 343 345 346
356 356 355 354 349 339 340 342 343 345 345 344 343 346 345 341 340 339 338 337 335 335 334 336 345 350 350 350 352 352 351 348 346 345 343 341 338 337 337 337 339 341 342 343 344 344 345 348 349 349 348 349 347 345 345 346 348 349 350 350 349 348 349 347 347 346 343 340 342 342 343 346 347 347 347 345 341 338 337 336 336 338 341 344 346
355 355 355 354 348 340 341 341 342 344 344 343 342 346 345 339 339 337 334 334 333 334 333 335 346 351 349 350 351 352 352 352 350 347 344 342 339 339 337 337 339 340 341 342 343 344 346 348 348 349 348 348 347 346 346 347 348 349 349 349 347 348 349 349 348 347 345 339 340 342 342 344 347 347 347 347 344 339 337 336 336 337 338 342 344
355 354 354 354 348 341 341 340 341 343 343 342 342 344 343 339 337 335 332 333 332 333 332 335 346 351 350 351 351 350 354 357 355 348 343 341 339 338 338 338 338 339 340 341 342 345 349 350 349 349 349 348 348 348 347 347 347 347 347 347 347 347 349 349 348 348 346 339 339 342 342 343 345 347 347 347 346 342 338 337 336 335 336 339 342
354 354 353 354 349 342 340 339 342 344 343 341 341 342 341 338 335 333 332 332 332 333 332 334 344 350 349 350 350 350 351 354 354 350 346 344 341 340 339 338 338 341 343 344 345 346 348 349 349 350 349 349 348 347 347 346 347 347 347 346 345 346 348 349 348 348 346 339 337 341 341 342 344 347 347 347 347 345 340 338 336 335 337 337 339
353 353 353 354 350 344 340 340 343 344 342 340 340 340 339 336 334 334 335 334 333 334 338 340 343 348 349 349 350 349 347 348 351 351 349 348 347 346 344 343 343 345 348 348 348 349 349 349 350 350 349 348 348 347 347 347 347 347 347 346 345 345 347 348 347 348 345 338 337 339 341 342 344 346 347 346 347 346 344 341 337 336 336 337 338
353 352 353 354 351 345 339 341 344 344 342 340 339 338 338 337 336 337 337 337 337 340 345 347 347 349 350 350 350 349 347 347 350 350 350 350 350 350 350 349 349 349 350 349 349 349 349 349 349 350 349 348 349 348 347 347 347 347 346 345 345 345 346 347 346 348 345 339 337 338 341 342 344 345 347 347 346 346 345 344 342 337 335 336 337
352 352 353 353 352 347 341 342 347 345 341 338 337 336 336 337 337 337 337 339 343 345 348 349 350 350 351 352 350 349 349 348 350 350 351 350 350 350 350 350 350 350 349 349 348 348 349 348 348 349 349 348 348 348 347 347 346 347 345 343 344 344 345 345 345 346 343 338 337 338 340 342 344 346 345 346 346 345 345 345 345 342 337 336 336
352 352 353 353 352 349 342 344 350 348 341 336 335 335 335 338 338 336 336 342 347 348 350 351 351 350 351 353 351 349 348 349 350 351 350 349 349 349 349 349 350 349 349 349 348 348 349 348 348 348 348 348 348 347 346 346 345 346 346 343 342 344 344 343 343 343 340 338 338 338 340 342 345 346 345 346 346 345 345 345 345 344 341 339 337
352 352 353 352 352 350 344 345 351 351 344 336 334 334 335 336 337 338 342 347 349 348 351 352 351 350 350 352 352 350 348 348 350 351 350 349 349 350 350 350 350 349 349 350 349 349 350 349 349 349 348 348 348 346 346 346 345 344 345 343 342 343 344 343 342 341 338 338 338 338 340 343 345 345 345 346 346 345 345 345 345 345 345 342 341
351 351 352 352 351 350 345 347 352 351 347 340 336 334 334 336 338 342 347 349 349 349 350 351 351 350 350 352 351 350 348 348 350 351 350 350 349 350 351 350 350 349 350 350 350 351 351 349 349 350 349 348 348 347 346 346 345 345 345 343 342 341 343 344 342 340 338 338 338 338 339 342 344 344 345 346 346 345 345 345 346 346 346 345 344
350 350 352 352 351 350 346 347 351 351 349 345 341 338 334 336 343 347 349 349 349 349 349 350 352 351 350 351 351 350 349 349 350 350 350 350 351 350 350 351 350 349 351 352 352 352 351 350 350 350 349 348 348 347 347 347 346 345 344 342 340 340 342 343 341 340 338 336 337 337 338 340 341 342 344 345 346 346 345 345 345 346 345 345 345
349 350 351 351 350 350 347 346 350 349 350 349 346 345 339 339 347 349 348 350 349 349 349 350 352 352 349 350 350 350 351 350 349 350 351 351 351 351 349 351 351 351 352 353 354 354 351 351 350 350 349 349 349 347 347 346 346 345 343 341 339 340 343 342 341 340 338 337 337 338 339 339 339 339 341 343 345 346 346 345 345 346 345 345 346
350 350 350 351 350 350 348 346 350 349 350 350 349 350 344 343 349 349 349 350 349 350 350 350 352 353 351 350 350 350 351 352 350 350 352 352 352 351 350 350 351 352 352 353 354 352 351 352 351 351 350 349 348 347 346 346 345 344 343 340 339 340 342 342 342 341 338 337 338 338 340 341 341 340 340 341 343 345 346 346 345 346 345 345 345
350 351 350 351 350 350 348 346 349 350 350 351 351 352 348 345 349 351 349 349 350 351 351 351 351 353 353 352 351 349 349 352 351 351 352 353 353 351 351 351 351 352 353 353 353 352 352 352 351 351 351 350 349 346 344 345 344 343 341 339 340 341 342 342 342 341 340 338 339 339 339 340 340 340 341 341 342 343 345 346 346 345 345 344 344
351 351 351 350 349 349 349 348 348 350 351 351 351 352 350 346 349 351 350 350 350 350 351 351 351 353 354 353 352 350 349 351 352 352 352 353 352 350 351 351 352 352 352 354 353 352 352 351 351 352 352 350 350 347 344 343 343 343 341 339 341 343 343 343 342 343 342 341 342 341 340 341 340 338 338 340 341 341 342 344 345 345 344 344 344
352 352 352 351 350 350 350 348 348 350 351 352 351 352 352 348 349 352 351 351 350 350 351 351 352 353 353 353 353 352 350 350 352 352 353 353 352 351 351 351 352 352 352 354 352 352 351 351 352 351 351 351 350 348 345 343 342 343 342 341 342 343 343 343 343 344 344 344 344 344 344 344 343 341 339 338 339 340 340 342 343 344 344 344 344
352 352 352 352 351 351 351 350 349 350 351 354 353 352 352 350 350 352 352 352 351 350 351 352 353 353 354 354 353 354 351 350 352 352 352 353 352 352 352 351 351 352 353 354 353 353 352 352 352 350 350 352 349 347 345 344 344 342 341 342 343 343 342 343 344 344 344 345 345 345 345 345 345 345 343 343 342 339 339 341 342 343 344 344 344
353 353 353 353 353 353 354 352 351 350 352 354 354 353 352 351 352 353 353 353 352 351 350 352 354 354 354 354 354 353 352 351 351 351 352 352 351 352 352 352 351 351 353 354 352 353 352 352 352 352 350 350 348 347 345 342 341 340 340 341 343 342 343 343 344 344 345 345 345 345 345 345 345 345 345 346 346 343 340 339 341 342 342 343 345
353 353 353 354 354 354 355 355 352 352 353 354 355 354 353 352 353 353 353 353 352 352 351 351 353 354 354 354 353 353 353 350 349 349 349 350 350 352 353 352 351 352 353 353 352 353 353 351 353 352 351 349 347 346 343 339 339 339 341 342 342 343 343 343 343 344 344 344 344 344 344 345 345 345 345 347 347 347 344 339 338 340 341 342 343
353 354 354 354 355 354 355 356 355 353 354 354 354 354 354 354 353 353 353 353 352 352 351 351 352 354 354 353 353 352 353 351 347 346 347 348 350 352 352 352 351 352 353 354 353 354 353 353 353 352 351 349 347 345 341 338 339 340 339 340 341 342 342 342 343 342 343 344 344 343 343 344 345 344 346 346 347 348 346 342 340 341 342 342 342
353 354 354 354 355 354 354 356 356 355 355 354 354 354 354 354 353 352 353 353 353 352 351 351 352 353 353 353 352 351 352 352 349 347 345 346 349 351 351 352 352 352 353 355 355 354 353 353 354 351 350 350 348 347 344 338 338 339 339 341 344 344 342 340 343 343 342 343 343 343 343 343 344 345 344 346 347 346 345 344 343 344 345 342 341
353 353 354 354 354 354 354 355 356 356 355 354 353 354 354 354 353 353 352 353 353 352 351 352 352 352 353 353 351 352 351 352 351 349 347 344 346 349 349 351 352 353 353 354 355 354 353 354 354 351 350 350 349 350 346 338 338 339 340 345 344 344 347 342 340 343 343 342 342 343 342 343 344 345 344 344 346 345 343 341 342 344 344 342 341
353 354 354 354 354 354 354 355 355 356 355 354 354 354 354 354 355 353 353 353 353 352 352 353 353 352 351 352 351 351 351 351 350 350 350 346 343 345 348 350 351 353 354 354 355 354 354 354 353 352 352 350 349 349 345 338 340 338 339 347 343 346 354 347 340 342 342 342 342 340 340 342 343 343 343 343 343 344 342 341 341 342 342 341 342
353 354 354 354 354 354 354 354 355 355 356 355 355 355 355 355 355 354 354 354 354 353 352 353 353 351 350 351 350 351 350 350 350 350 351 348 344 342 347 350 351 353 354 354 354 355 355 354 353 352 352 350 349 350 347 341 343 341 338 343 342 346 351 345 343 346 342 341 341 340 339 340 341 342 342 343 343 342 340 340 340 341 341 340 340
353 354 355 354 354 354 354 354 355 355 355 355 355 355 354 354 355 354 354 354 354 353 353 352 353 352 351 350 350 350 350 350 350 350 350 350 346 343 346 349 350 352 354 354 354 354 354 353 353 352 352 351 350 351 348 342 342 343 340 341 341 342 343 340 345 348 346 343 339 338 339 339 340 341 341 342 341 340 339 339 340 340 341 340 339
352 353 354 354 354 354 354 355 355 355 355 355 355 355 354 355 354 354 354 353 354 354 353 352 352 352 351 351 350 350 350 350 350 350 350 351 349 347 347 349 350 353 355 354 353 353 353 353 352 352 353 352 350 351 348 342 340 341 341 342 342 342 341 338 341 344 348 350 344 339 340 338 340 339 338 339 339 339 339 338 338 340 341 340 339
352 353 353 355 354 355 355 355 355 355 355 356 356 355 355 355 355 354 354 354 354 353 353 352 352 352 352 352 351 350 351 350 351 350 351 352 351 350 350 351 351 353 355 354 353 354 355 353 351 353 355 353 350 351 349 344 340 338 338 340 342 342 341 339 339 340 345 350 348 343 340 338 339 338 337 338 338 339 339 337 338 339 340 339 338
352 353 353 354 354 355 354 355 355 356 356 355 355 356 355 355 355 354 354 354 354 353 354 353 352 352 352 352 352 351 350 351 352 351 351 352 351 351 351 352 352 354 355 354 354 355 355 354 352 354 355 353 351 351 351 348 341 339 338 337 340 342 341 341 340 340 341 343 347 344 338 338 339 338 338 338 338 339 339 337 338 339 339 337 337
352 352 353 353 354 354 354 355 355 356 356 356 356 356 355 355 354 354 354 354 353 354 354 354 353 352 352 351 352 351 351 351 352 352 352 352 352 352 352 353 353 354 356 355 353 354 355 355 354 356 356 353 351 351 351 350 345 342 339 336 339 342 341 341 340 340 341 340 344 344 339 338 339 338 339 338 338 339 339 338 338 339 338 336 337
Wind_Speed
19 20 21 23 23 23 25 25 25 26 26 25 25 25 25 24 24 24 24 24 24 24 23 23 23 23 22 22 21 21 21 21 21 21 20 20 19 19 18 18 17 17 16 16 15 15 15 15 15 15 16 15 15 15 14 14 14 13 13 15 15 16 16 15 15 15 14 14 13 13 13 13 13 13 12 12 12 12 12 12 13 14 15 15 15
21 20 21 24 23 24 24 24 24 25 24 24 25 25 24 25 25 24 24 24 24 23 23 23 23 23 22 22 22 22 22 21 21 20 20 19 19 18 18 17 16 16 15 15 15 15 14 15 15 15 15 15 15 15 15 14 14 14 14 15 16 17 16 15 15 15 14 14 14 13 12 12 12 12 12 11 12 12 12 12 13 15 15 15 15
22 21 21 23 23 24 24 24 24 23 23 24 24 24 24 25 25 24 24 24 24 23 22 23 22 22 22 22 22 21 21 21 20 19 19 19 18 18 17 17 16 16 15 15 15 15 14 14 15 15 15 15 15 14 14 14 15 14 14 15 16 16 16 16 15 15 14 14 13 13 13 12 12 12 12 11 12 12 12 12 13 15 15 15 16
23 23 22 23 23 24 23 23 23 23 23 24 24 23 24 24 24 24 24 24 23 23 22 22 22 21 21 21 21 20 20 20 19 19 19 18 18 17 16 16 16 15 15 15 14 14 14 14 14 14 14 14 14 14 14 14 14 14 14 14 14 14 15 16 15 14 14 14 14 14 15 14 13 12 12 12 12 12 12 12 13 15 15 16 17
24 23 23 25 25 24 23 23 23 22 23 24 23 23 23 23 24 23 24 24 23 22 22 22 21 21 21 21 20 20 20 20 19 18 18 18 17 17 16 16 15 15 14 14 14 14 14 14 14 14 14 14 14 14 14 14 14 13 13 13 14 14 14 14 14 14 14 14 15 15 16 16 14 13 13 12 12 12 12 13 14 15 16 17 17
24 24 24 26 25 23 23 23 22 22 24 23 23 23 23 23 23 23 23 23 22 22 22 22 21 21 20 21 20 19 19 18 18 17 17 17 16 16 16 15 15 14 14 14 14 14 14 14 14 14 14 14 13 13 14 14 14 13 13 14 14 14 13 13 13 13 13 15 14 15 16 16 15 13 13 13 12 13 13 14 16 17 18 18 18
25 25 24 26 26 23 23 23 23 24 24 23 23 23 22 23 23 23 23 22 22 21 21 21 21 20 20 19 19 18 18 17 17 16 16 16 15 15 15 14 14 14 14 13 13 14 14 14 13 12 13 13 13 13 14 14 13 13 13 13 13 13 13 12 12 12 13 14 14 14 15 16 15 14 13 13 13 13 14 16 17 17 18 19 19
26 26 26 27 25 24 23 23 24 24 23 23 23 22 22 22 22 22 22 21 21 20 20 20 20 19 19 18 18 18 17 17 17 16 16 15 15 15 15 14 14 13 13 13 13 13 13 13 13 12 12 13 13 13 14 14 13 12 12 12 12 13 13 12 12 12 12 12 13 14 15 15 15 14 13 13 13 14 15 16 16 17 18 18 19
27 26 27 27 25 25 24 24 25 24 23 23 23 22 22 22 22 21 21 21 20 20 20 19 19 19 18 18 17 17 16 16 16 16 16 15 15 15 14 14 14 14 13 13 13 13 13 13 13 12 13 13 13 13 14 14 13 12 12 12 12 12 12 12 13 13 12 12 12 13 14 14 14 14 13 13 13 15 16 17 17 17 18 18 19
28 27 27 26 26 25 24 26 25 23 23 23 22 22 22 22 21 20 20 20 20 20 19 19 19 18 18 17 17 16 16 16 16 16 15 15 15 14 14 14 14 14 14 13 13 13 13 13 13 13 13 13 13 13 13 13 12 11 11 11 12 11 11 12 13 13 13 13 12 12 12 13 13 13 12 12 12 14 15 17 17 17 18 19 18
27 27 27 26 26 25 25 26 24 23 23 23 22 22 22 21 20 20 20 20 20 19 19 19 18 18 17 17 16 15 15 15 15 15 15 15 14 14 14 13 14 14 13 13 13 13 13 13 13 13 13 13 13 12 12 12 11 10 10 11 11 11 11 12 12 12 12 13 12 12 12 12 12 12 12 12 12 12 13 16 16 17 18 18 17
28 28 27 26 26 25 26 25 24 24 23 23 22 22 21 20 20 20 20 19 19 19 18 18 18 17 16 16 16 15 15 14 14 14 14 14 14 14 14 13 13 13 13 13 13 13 13 13 12 12 12 13 12 12 12 11 10 10 10 11 10 11 11 12 12 12 12 12 12 12 12 12 11 12 12 13 13 13 13 15 16 17 17 17 16
29 29 28 27 26 25 26 25 24 23 23 23 22 22 20 20 20 20 19 19 19 18 18 18 17 17 16 16 15 15 14 14 14 14 14 14 14 14 14 13 13 13 13 13 13 13 13 13 12 12 12 13 12 11 11 10 10 10 11 11 11 11 11 12 12 12 12 12 13 13 14 13 12 12 12 13 13 13 12 13 15 16 16 16 16
30 30 29 27 26 25 25 25 23 23 23 23 22 22 20 20 19 19 19 19 18 18 17 17 16 16 16 15 15 15 14 14 14 13 13 13 14 14 13 13 13 13 13 13 13 13 13 13 13 12 12 12 12 11 10 9 10 10 10 10 10 11 11 12 12 12 13 12 13 14 15 14 13 12 13 13 12 13 13 12 13 14 15 16 16
32 31 29 28 26 25 25 25 23 23 23 23 22 21 20 20 19 19 19 18 17 17 17 16 16 15 16 15 15 15 14 14 13 13 13 13 13 14 14 14 14 14 14 14 13 13 13 13 13 12 12 12 12 11 10 9 9 9 10 10 10 10 10 11 10 11 12 12 13 15 15 14 14 13 13 13 13 13 13 13 13 13 14 15 15
32 31 29 28 25 25 26 24 23 23 23 23 22 21 21 20 20 19 18 18 17 17 16 16 16 16 16 15 15 15 15 14 13 14 13 13 14 14 14 14 14 14 14 14 14 14 13 13 12 12 12 12 12 11 9 9 8 9 9 10 10 9 9 10 9 10 12 13 13 14 14 13 13 13 13 13 13 13 13 13 13 13 14 14 14
32 31 29 28 25 26 27 25 23 23 22 22 21 21 20 20 20 19 18 17 17 17 16 16 16 16 16 16 15 15 15 15 14 14 14 14 14 14 14 14 14 14 14 14 14 14 13 13 12 13 13 13 12 11 9 8 8 9 9 9 9 9 9 9 9 10 11 12 12 13 14 13 12 12 12 13 13 13 13 13 13 13 13 13 14
32 30 29 28 26 27 28 25 23 23 22 22 21 21 20 20 19 19 18 17 17 17 17 17 16 16 16 16 16 15 15 15 15 15 14 14 14 14 14 14 14 14 14 14 14 14 13 13 13 13 13 13 13 11 9 8 9 10 9 9 9 9 9 9 10 10 11 12 12 12 14 13 12 12 12 12 12 13 13 13 12 12 13 13 13
31 30 29 28 27 27 29 26 24 24 23 23 22 21 20 20 19 19 18 17 17 17 17 17 17 16 16 16 15 15 15 15 15 15 14 14 14 15 14 14 14 14 14 14 14 13 13 13 13 12 12 13 13 12 9 8 10 10 10 10 10 9 9 9 10 11 11 12 12 13 13 12 12 11 12 12 12 12 12 12 12 12 12 13 12
29 29 28 28 27 28 29 27 25 25 24 24 23 21 20 19 19 18 18 18 17 17 17 17 17 16 16 16 15 15 15 15 15 15 14 14 14 15 14 14 14 14 13 13 13 12 12 11 11 11 11 11 12 13 10 9 10 9 9 9 9 9 9 9 9 9 11 12 12 13 13 13 12 11 12 12 12 12 12 12 12 12 11 12 12
28 28 28 28 27 29 30 28 27 25 25 24 23 22 20 19 19 18 17 17 16 17 17 17 17 16 16 16 15 15 15 15 15 15 14 14 14 14 14 14 13 13 13 12 11 11 11 10 9 9 9 9 10 11 10 9 10 8 8 8 8 8 9 9 8 9 10 12 12 12 13 13 12 11 11 11 11 11 11 12 11 12 11 11 12
27 28 28 28 28 29 30 29 28 26 25 24 24 23 20 19 19 19 18 17 16 16 17 17 18 17 17 16 15 14 14 14 14 14 14 14 13 13 13 13 13 12 12 11 10 9 9 8 8 7 7 8 8 9 10 9 9 8 7 6 6 7 9 9 9 9 10 11 11 12 13 12 12 12 11 11 11 11 11 11 11 11 11 10 11
28 28 28 28 29 30 30 30 28 27 26 25 25 23 21 20 20 19 19 18 17 16 17 17 18 17 16 15 14 13 13 13 12 12 12 13 13 13 12 12 12 12 11 10 9 8 7 7 7 7 7 7 7 8 9 9 9 8 6 5 6 7 9 10 9 9 9 10 11 12 13 13 12 12 12 11 11 11 10 11 11 11 11 11 11
29 29 29 28 30 31 30 30 29 28 27 26 25 23 22 21 20 20 19 19 17 17 17 16 16 15 15 14 13 12 11 11 11 11 11 12 12 12 12 12 12 11 11 10 9 7 6 5 6 6 6 6 7 8 8 8 8 8 7 6 8 10 10 10 9 8 9 10 12 13 13 13 12 12 11 11 11 11 10 11 11 11 11 11 11
29 29 28 29 31 32 31 31 30 29 28 27 26 25 24 22 21 20 20 19 18 17 17 16 15 14 13 13 12 11 11 11 10 9 10 11 11 12 12 12 12 11 10 9 8 7 6 5 5 5 5 6 7 7 7 7 8 8 7 7 9 12 11 11 9 8 9 11 12 13 13 13 13 12 11 11 10 10 10 10 11 10 10 11 11
29 28 29 30 32 33 32 32 31 29 29 28 27 26 25 23 22 21 20 19 18 17 17 16 15 13 12 12 12 11 11 12 10 9 9 9 10 11 11 11 11 10 9 8 7 6 5 4 4 3 3 5 6 7 7 6 7 8 8 8 9 12 13 12 11 9 10 11 12 12 13 13 13 12 11 11 10 10 10 10 10 10 10 11 11
29 28 29 30 33 33 33 33 31 30 29 29 28 26 25 24 22 21 20 20 19 18 17 17 15 13 12 12 12 12 12 12 10 9 8 8 8 9 9 9 9 8 7 5 4 4 4 3 3 2 4 5 6 7 7 6 6 6 7 9 9 11 14 13 11 10 10 12 12 12 13 13 13 12 11 11 10 9 9 10 9 9 9 10 10
29 29 30 31 33 34 34 33 32 31 30 30 28 27 26 24 23 21 20 19 18 18 17 16 15 14 12 11 12 12 12 11 10 8 7 7 7 7 7 7 7 7 5 4 3 3 3 2 2 3 5 5 6 7 8 7 5 3 5 9 9 11 14 13 11 11 11 12 13 13 13 13 13 12 11 10 10 10 9 9 9 9 9 9 9
30 30 30 32 33 34 35 34 32 31 31 31 29 28 27 25 23 22 20 18 17 16 15 14 14 14 12 10 11 12 12 11 10 8 7 7 7 7 7 7 7 6 5 5 5 4 3 3 3 4 5 5 6 8 8 7 5 3 2 6 9 12 15 13 11 11 11 13 13 13 14 14 13 12 11 11 10 10 9 9 9 9 9 9 8
31 31 31 33 33 34 36 35 33 32 31 32 30 29 27 26 24 22 19 18 16 14 13 13 13 14 14 12 11 12 11 10 10 9 8 8 8 8 8 8 7 6 6 6 5 5 4 5 5 5 5 5 6 8 8 7 6 4 3 5 7 11 15 14 12 11 12 13 13 13 13 13 13 13 12 11 10 10 9 10 9 9 9 9 8
31 31 32 34 34 35 36 36 33 32 32 32 31 30 28 27 24 21 19 18 17 15 13 12 12 14 16 14 11 12 12 11 11 10 9 8 9 9 9 9 8 7 7 6 6 6 5 5 6 6 5 4 6 9 9 7 5 4 3 3 4 10 16 15 12 11 12 13 13 13 13 13 13 13 12 11 10 10 9 9 9 9 9 9 8
33 32 33 34 34 35 37 36 34 33 32 31 31 30 29 27 23 21 20 19 18 17 15 13 13 14 16 14 12 11 12 12 11 10 9 9 10 9 9 9 8 7 7 7 7 6 5 5 5 6 5 4 6 9 7 5 4 3 1 2 3 9 15 16 12 12 12 12 13 13 13 13 12 12 12 11 11 10 10 9 9 9 9 9 9
33 32 33 35 35 35 37 36 34 34 33 31 31 30 29 27 23 22 21 20 20 19 17 14 14 15 16 14 11 11 12 11 11 10 10 10 10 10 9 8 8 7 7 7 6 5 4 5 5 5 6 6 7 7 5 3 2 1 0 1 4 8 14 16 13 12 12 13 13 13 13 13 12 12 12 11 11 11 11 10 10 9 10 9 9
32 32 34 35 35 35 37 36 35 35 34 32 31 29 29 28 24 23 22 21 22 21 19 16 15 16 17 15 13 12 11 10 11 11 11 11 10 9 8 8 8 8 8 7 5 4 4 4 4 5 7 6 6 5 3 2 1 1 3 4 5 9 15 17 12 11 13 13 13 12 12 13 12 12 12 11 11 11 11 11 11 10 10 10 10
33 34 36 36 35 35 37 36 36 36 35 32 31 29 30 29 26 25 23 22 23 22 20 19 17 17 18 17 16 14 12 11 11 13 12 11 10 9 9 8 8 8 8 7 4 4 4 4 4 5 6 6 4 3 2 2 2 1 5 5 8 12 17 16 11 11 13 14 13 11 11 12 11 11 11 11 11 11 11 11 11 11 11 10 10
35 35 36 36 35 36 37 37 37 37 35 33 31 30 30 30 28 26 25 23 23 22 20 20 18 19 20 19 18 16 15 13 12 13 12 11 10 9 8 8 8 8 8 7 5 4 4 5 5 4 5 5 4 2 2 4 5 2 6 7 13 17 18 14 12 13 13 13 12 10 11 10 9 8 9 10 11 12 12 11 11 11 11 11 11
35 36 37 37 36 36 37 37 38 39 36 33 31 30 30 31 28 27 26 24 24 23 21 21 19 20 22 21 19 17 16 15 14 14 12 11 10 8 8 8 8 9 8 8 7 6 5 6 6 5 5 5 5 3 3 4 5 3 6 12 18 19 18 14 13 14 14 14 12 11 10 9 8 7 6 8 9 11 12 12 11 11 11 11 11
36 37 38 38 37 36 37 37 38 39 36 33 32 30 30 30 28 27 28 25 24 24 21 21 20 21 22 21 19 17 17 17 16 16 13 12 10 9 9 9 9 8 8 8 8 7 6 7 6 6 7 6 5 4 3 3 4 2 8 17 19 18 16 14 14 14 14 13 11 10 9 8 8 6 5 5 6 8 10 12 12 11 11 11 12
36 37 38 38 36 35 36 36 37 38 37 33 32 31 29 30 28 27 28 26 25 24 22 21 21 21 20 20 19 18 18 18 18 17 15 14 12 11 10 9 9 9 9 9 8 7 7 8 7 6 8 8 5 3 2 3 3 2 11 19 18 16 15 14 14 13 12 11 10 9 7 7 7 6 6 6 4 5 7 11 12 12 12 11 11
37 38 39 38 37 35 35 36 37 38 37 33 31 32 31 30 28 28 28 27 26 25 24 22 21 21 20 20 19 18 18 20 20 18 17 16 14 13 11 10 10 10 11 10 9 8 8 9 8 6 7 8 8 4 2 5 8 10 15 19 17 15 14 13 14 13 11 10 9 8 7 7 6 6 7 6 5 4 5 8 11 12 12 12 11
36 38 39 39 38 37 35 36 38 38 37 35 33 33 33 32 30 30 30 29 27 26 26 25 23 23 23 21 20 18 18 19 20 20 18 17 15 14 12 11 11 11 11 10 8 7 8 9 8 7 6 8 9 5 5 11 14 14 14 16 16 15 15 13 12 11 11 11 9 8 8 8 8 7 7 6 6 5 4 6 9 10 10 11 10
36 39 40 40 39 38 36 36 37 39 39 38 35 35 35 34 32 32 32 30 29 28 27 27 26 25 25 23 20 20 19 18 18 19 19 18 17 16 13 12 12 12 11 10 8 8 9 10 9 8 7 8 8 5 7 11 10 12 13 11 9 10 11 12 11 10 11 11 10 10 9 10 10 9 7 7 6 5 5 6 7 7 8 9 10
37 40 40 41 40 38 37 36 37 39 40 39 37 36 36 35 33 33 33 31 30 30 27 26 26 26 27 25 22 21 21 20 18 18 19 20 19 17 15 13 12 12 13 12 10 9 10 11 10 9 9 9 8 6 7 9 8 12 12 6 3 4 4 7 10 10 10 11 11 11 11 11 11 9 8 8 7 7 6 6 8 8 6 7 8
36 39 40 40 40 39 39 38 39 39 40 40 38 37 35 34 32 31 32 30 29 30 27 25 25 26 28 28 25 24 23 22 20 18 19 20 20 19 17 15 14 13 14 14 13 11 11 13 12 10 10 10 9 7 8 10 11 12 8 3 2 3 1 4 9 11 11 11 12 12 13 13 13 12 10 10 9 9 8 7 8 8 7 6 6
36 38 41 41 40 40 40 40 40 40 40 41 39 36 33 32 29 27 28 27 26 28 28 26 25 26 28 29 28 26 24 23 22 19 19 20 21 20 18 17 15 15 15 15 14 12 12 14 13 12 12 12 11 8 9 10 11 12 9 4 3 2 2 5 6 8 9 8 11 14 15 15 15 15 13 11 11 10 9 8 8 7 6 6 5
37 40 42 43 41 40 41 40 41 40 40 41 40 38 35 34 31 28 27 26 26 29 32 30 27 27 29 29 28 27 26 24 23 21 19 19 21 21 20 18 17 16 16 15 14 13 13 14 14 13 13 13 12 9 10 11 11 13 11 6 4 2 3 6 5 4 6 5 10 15 16 16 16 16 15 14 13 12 10 9 8 7 6 5 6
38 41 41 42 41 40 40 41 41 41 40 40 41 39 37 36 35 33 31 30 29 30 33 34 30 28 28 29 28 28 27 26 24 22 20 19 20 21 21 20 19 18 17 16 15 14 14 14 15 14 13 14 13 10 10 11 11 13 12 9 6 2 4 9 6 3 3 3 10 16 17 17 16 16 16 16 16 13 11 10 9 8 8 6 6
39 40 39 41 41 41 41 41 41 41 41 41 41 41 39 38 37 35 33 33 32 32 33 34 32 29 27 28 29 29 29 28 26 24 21 20 20 21 22 21 20 19 18 17 16 15 14 14 15 15 15 15 14 12 11 12 13 13 11 10 8 3 5 11 11 9 5 2 5 10 14 17 17 17 17 16 17 15 12 12 11 11 10 8 7
39 40 40 41 41 42 41 41 41 41 41 42 42 42 41 39 38 36 34 33 33 32 32 33 33 30 27 27 29 31 31 29 27 25 23 21 20 21 22 22 21 21 20 19 18 16 15 15 15 16 17 17 16 13 12 13 15 14 12 12 9 5 6 9 13 12 7 4 3 4 9 13 14 18 18 17 16 16 14 13 12 13 12 10 9
39 41 40 40 40 40 40 40 40 41 41 42 43 42 41 39 38 37 35 33 32 30 30 31 33 32 28 26 28 31 32 31 29 26 24 22 21 21 23 23 22 22 22 21 19 18 16 15 15 17 18 18 17 16 14 14 15 14 12 13 13 9 6 7 11 12 8 6 5 5 9 12 11 15 19 18 18 17 16 14 13 13 14 12 11
37 39 39 38 39 39 40 40 40 41 41 42 43 42 41 40 39 39 37 35 32 30 30 31 33 33 31 29 29 31 32 31 30 28 26 24 22 22 23 24 23 23 23 21 21 19 17 16 16 18 19 19 18 17 16 15 15 15 13 14 16 14 10 9 11 12 9 6 5 5 10 13 12 15 17 19 20 19 18 16 15 14 14 14 13
Wind_Direction
145 139 136 133 131 131 131 129 127 126 125 124 123 122 122 121 121 120 120 119 118 117 118 119 120 120 120 121 121 121 122 122 121 122 121 120 120 118 116 116 117 117 117 116 113 106 102 101 99 99 99 99 99 98 96 95 97 97 101 104 110 114 109 105 105 105 104 103 103 102 102 101 100 98 98 98 99 100 100 104 109 109 107 109 108
146 143 139 136 134 134 132 130 129 128 126 125 124 124 123 123 122 121 120 118 117 117 119 119 119 119 119 120 119 120 120 121 121 121 121 120 119 118 117 117 118 118 118 118 113 108 105 105 103 101 100 100 100 99 98 97 99 101 103 106 110 111 107 103 102 102 102 102 101 100 98 97 99 102 101 100 99 99 101 105 110 111 111 111 110
144 145 143 140 137 137 135 132 130 129 127 125 125 124 124 123 123 121 120 118 118 119 119 118 118 118 118 118 117 117 118 119 120 121 121 121 121 120 119 120 120 121 122 120 115 110 107 105 104 103 101 101 102 101 100 100 101 104 105 107 110 109 106 105 103 101 102 102 100 98 96 95 97 101 101 100 101 101 103 107 111 113 113 111 109
145 145 145 143 139 138 136 134 132 130 128 127 126 125 125 124 123 121 120 119 119 120 120 118 118 117 117 117 117 117 119 121 122 123 124 125 124 123 123 123 123 123 122 120 116 113 108 105 104 103 102 102 103 102 101 101 103 105 106 107 108 106 106 107 105 103 103 104 105 103 101 98 96 98 98 97 101 104 105 108 112 113 113 111 108
146 143 144 143 139 139 138 137 134 131 129 129 128 126 126 125 123 121 120 121 122 122 120 119 118 118 118 118 118 120 123 124 124 125 127 127 127 127 126 125 125 123 122 120 118 115 111 108 104 102 102 103 103 102 103 104 104 105 108 110 108 106 106 107 105 104 105 108 109 107 105 102 99 97 97 96 100 107 110 113 115 114 112 111 109
146 143 145 143 139 140 140 138 134 132 131 130 129 129 128 126 124 122 123 124 123 122 121 120 118 118 118 118 119 121 123 123 125 126 128 128 128 128 127 126 126 124 123 121 119 116 113 110 106 103 102 103 104 104 106 106 107 107 109 111 109 107 107 105 104 108 109 108 108 108 108 106 102 98 96 94 101 109 111 114 115 114 112 112 110
147 145 146 143 141 143 141 138 134 134 133 132 131 131 129 126 125 125 125 125 124 123 121 120 119 118 117 118 119 121 121 122 124 125 125 126 127 126 127 126 124 124 123 121 119 116 113 111 108 105 104 104 104 105 107 108 109 109 110 110 110 109 107 104 105 110 109 106 106 107 108 106 104 101 99 97 100 108 110 111 112 113 113 113 113
147 147 146 143 143 144 140 136 136 136 135 134 133 131 130 128 127 127 127 126 125 123 122 122 120 119 118 119 120 120 120 121 123 123 123 124 125 124 124 124 123 122 120 119 117 115 113 111 110 108 106 105 105 106 108 108 109 110 111 111 112 111 107 104 109 114 110 106 107 108 107 105 103 102 103 102 100 106 111 110 110 112 113 115 116
149 148 147 145 144 144 140 138 138 138 137 136 135 133 131 130 130 129 128 127 126 124 124 123 122 120 120 121 121 121 122 122 122 122 122 122 122 122 123 122 120 118 116 115 114 113 111 109 109 108 106 106 106 108 109 109 110 109 109 109 112 113 108 107 113 117 111 109 110 109 107 105 104 103 104 105 101 103 109 110 112 115 114 115 115
150 150 149 146 146 144 140 140 141 139 139 138 137 135 133 133 132 131 130 128 126 126 125 124 123 122 122 123 123 124 124 124 124 124 124 124 123 123 122 120 118 116 113 112 111 110 109 109 108 107 107 106 107 111 111 110 110 108 106 109 113 116 113 114 118 115 109 108 110 108 107 107 106 106 106 106 102 101 106 109 112 115 114 114 113
151 152 150 148 148 144 141 143 143 142 141 140 138 136 136 135 134 132 130 128 127 127 126 125 124 124 124 125 125 126 126 126 125 125 125 124 123 122 120 118 116 115 113 111 110 109 108 108 107 106 107 107 109 113 111 108 109 106 106 109 112 117 120 122 120 113 108 108 110 111 110 108 105 106 109 109 107 104 105 108 110 112 113 114 114
154 154 151 150 148 143 144 146 145 144 143 141 139 138 138 137 135 133 131 129 129 128 127 126 126 126 126 127 127 128 127 126 126 125 124 123 122 121 120 118 116 114 113 110 109 108 107 107 106 105 106 108 111 113 112 110 111 110 110 111 114 118 122 124 121 116 113 109 110 113 113 110 107 106 109 111 111 107 103 106 109 112 115 116 116
155 155 153 150 147 144 147 149 147 146 144 143 141 140 140 138 136 134 133 131 130 129 128 126 126 126 127 127 128 128 128 127 126 126 125 124 122 121 120 118 116 113 111 109 108 108 107 106 105 104 104 109 113 115 114 112 113 113 111 111 116 120 122 123 122 120 115 111 111 113 112 109 108 109 111 111 111 110 108 106 108 113 118 120 119
155 155 153 150 147 148 151 151 149 148 147 145 144 143 141 139 138 136 134 133 131 130 129 127 128 128 128 128 128 127 127 127 127 127 126 124 122 121 121 119 118 115 112 110 108 107 107 106 105 104 103 108 114 118 117 116 114 112 111 111 116 120 124 125 123 120 115 114 115 114 112 109 108 109 111 112 114 115 114 111 110 115 121 125 123
157 156 153 150 148 151 154 154 151 150 149 147 146 144 143 141 139 137 135 134 133 131 130 129 130 129 129 128 127 126 126 127 127 128 127 125 123 122 122 122 119 117 113 110 108 106 105 105 105 104 103 104 110 118 119 118 113 112 116 116 119 123 125 127 124 120 118 119 121 119 113 110 109 109 110 110 114 117 119 120 120 120 124 128 126
158 156 153 150 150 154 156 156 153 152 151 150 149 147 146 144 141 139 137 137 135 133 131 131 131 130 129 128 127 126 125 126 128 129 128 127 126 125 123 121 119 115 112 109 106 104 103 104 105 105 103 102 106 115 121 124 121 115 116 117 122 126 124 126 127 122 123 125 127 125 117 114 113 112 112 110 111 116 122 126 128 128 127 130 129
159 157 153 152 154 157 160 157 154 154 154 153 152 151 148 145 143 141 140 139 136 134 132 131 132 131 130 129 128 127 127 128 128 128 128 128 126 125 123 121 118 114 111 107 104 103 102 102 104 105 104 104 106 111 120 129 129 121 119 122 125 125 123 126 128 126 129 132 132 129 123 122 121 118 115 113 113 114 117 121 127 130 130 133 134
159 158 155 154 158 160 161 158 156 157 156 157 155 154 151 148 146 144 143 141 138 136 134 133 132 131 130 129 128 129 129 129 129 129 129 129 128 127 125 121 118 114 110 107 104 101 100 99 99 102 105 108 109 110 116 125 129 129 130 130 127 125 127 131 131 133 137 137 137 134 128 128 125 122 118 115 113 112 112 113 117 126 133 137 138
160 160 157 158 161 162 162 161 160 160 160 160 158 157 155 152 151 149 148 144 141 138 137 136 133 131 130 128 128 128 128 128 128 130 130 131 131 130 127 123 119 115 111 107 105 101 98 95 93 95 102 110 113 114 117 124 128 130 135 135 132 131 134 137 136 139 143 142 144 141 135 133 130 128 124 119 117 115 114 113 113 119 131 138 140
160 161 160 161 163 163 165 164 164 163 163 163 160 159 158 157 156 155 153 149 144 141 141 139 135 133 131 129 129 129 127 127 127 127 130 132 132 132 129 127 122 117 113 108 106 103 100 96 93 92 95 106 114 118 122 129 129 128 133 136 137 140 143 144 144 143 144 146 149 146 140 138 137 133 129 125 122 120 119 119 118 118 127 138 144
163 164 164 165 165 166 168 167 167 166 166 165 162 161 161 162 162 161 158 152 148 146 144 141 140 137 135 134 131 130 128 127 127 127 129 130 131 131 132 131 128 123 118 114 110 106 103 99 95 93 93 100 113 124 129 131 131 132 135 139 143 146 148 152 155 149 146 149 153 151 145 143 143 140 136 131 126 124 122 121 120 118 121 132 143
165 167 167 168 167 168 170 169 169 169 169 168 165 163 164 167 166 165 162 157 155 153 149 145 144 142 139 137 132 128 126 126 125 127 131 131 132 133 134 135 134 130 127 123 117 112 107 102 95 92 99 107 117 130 139 143 141 140 143 150 160 158 153 160 164 155 151 154 158 158 152 150 150 148 143 138 133 129 126 123 121 119 119 127 139
166 168 170 172 171 171 172 172 171 172 172 170 168 166 167 171 169 167 164 162 163 160 155 152 150 146 141 136 131 130 127 125 124 126 131 133 135 136 136 139 139 137 135 132 128 124 115 107 102 98 107 120 129 137 148 156 155 155 157 159 179 179 163 166 172 162 159 161 164 163 158 155 155 154 150 145 141 138 134 129 124 122 121 124 135
169 170 171 174 174 174 174 175 174 174 175 173 171 170 171 173 171 169 166 165 167 164 160 157 155 151 145 139 136 137 133 130 129 128 131 136 139 141 141 142 143 142 141 140 136 130 120 115 114 113 116 129 140 146 151 159 162 166 167 165 180 186 176 176 179 171 170 168 168 167 162 158 157 158 156 152 148 145 141 134 129 126 125 124 130
170 171 172 176 177 177 177 177 177 178 177 176 175 174 174 174 174 172 169 168 169 167 163 160 158 153 149 146 144 145 140 140 145 138 135 139 141 144 145 145 146 146 146 146 142 136 132 132 128 120 119 132 142 150 158 163 166 169 171 171 183 186 185 191 190 184 182 174 171 170 166 162 160 161 160 157 155 151 147 140 136 133 130 127 127
171 173 175 178 178 179 180 179 179 181 181 179 178 178 176 175 176 175 174 173 172 171 166 163 161 156 153 151 151 154 150 151 156 146 138 141 142 146 149 150 149 147 149 148 146 147 145 138 125 119 127 139 144 150 160 167 172 180 185 183 185 186 189 198 198 192 187 179 175 173 169 166 162 163 164 162 160 157 154 147 143 141 137 134 132
173 175 177 179 179 180 182 181 181 183 184 183 181 180 179 177 177 177 178 176 175 176 171 166 166 164 161 158 157 159 160 158 158 150 145 144 144 150 154 152 148 145 144 140 149 162 158 145 132 149 163 161 159 159 164 168 176 189 204 201 194 187 190 200 203 197 189 180 177 176 173 169 166 166 167 168 167 163 161 155 152 151 147 143 140
174 176 178 179 180 182 183 182 184 185 186 186 184 183 181 179 179 180 181 178 178 179 174 170 170 172 172 171 168 166 167 163 158 158 158 155 151 157 156 153 151 147 145 140 152 164 162 163 172 175 174 175 174 174 170 168 175 181 201 203 200 195 195 203 208 205 196 182 177 178 177 173 170 169 170 172 172 170 167 163 162 162 159 155 151
176 177 178 180 182 183 184 184 186 187 188 188 188 186 183 182 183 184 182 180 181 179 176 174 174 178 181 184 185 181 180 172 164 164 169 168 165 167 163 159 160 157 160 154 143 142 147 154 175 182 182 185 186 182 174 167 166 149 159 180 188 197 200 204 204 207 201 187 180 178 179 178 174 174 173 174 177 177 176 173 172 172 170 167 164
178 178 179 181 183 184 185 186 188 189 190 190 190 189 187 186 186 187 186 184 183 178 177 179 179 180 182 188 194 196 197 186 173 170 174 173 169 169 166 163 164 160 156 149 137 135 140 144 160 172 178 186 190 183 174 170 163 144 147 172 182 196 204 204 198 201 200 189 182 178 181 180 177 178 178 177 179 181 183 182 180 180 180 178 177
179 178 180 182 183 185 186 187 189 191 192 192 192 192 190 189 190 189 189 189 187 184 184 183 182 181 182 188 195 202 207 198 184 177 177 178 174 169 165 164 163 154 141 139 141 138 141 152 157 162 170 172 180 178 172 174 169 138 139 176 193 201 205 202 193 197 196 187 183 180 182 182 181 182 183 183 183 185 188 188 185 185 188 187 186
182 181 181 182 183 186 187 188 190 191 194 195 194 195 194 192 191 191 191 192 192 192 192 190 188 183 184 189 195 202 205 199 192 185 181 179 174 167 164 166 166 152 132 131 138 133 134 150 152 157 160 142 158 172 174 178 169 133 143 267 228 210 204 196 191 197 191 182 183 183 182 183 185 186 186 187 187 188 191 193 191 189 191 193 193
184 183 182 182 183 186 188 188 191 192 194 197 197 198 197 194 190 192 195 196 199 199 198 195 191 186 185 189 193 195 195 195 197 193 183 177 172 167 164 162 161 153 140 138 141 136 130 135 139 141 139 128 140 162 177 182 155 125 339 262 197 199 193 186 187 194 188 182 183 183 183 184 187 189 188 188 190 192 193 196 196 194 195 197 198
183 183 183 184 184 186 187 188 190 193 194 197 198 198 198 195 191 195 198 202 205 203 202 197 190 185 184 190 193 187 185 193 200 193 183 180 177 172 168 160 158 159 156 156 152 146 143 140 134 126 130 131 134 151 167 153 123 117 67 93 156 174 175 177 183 188 187 184 182 180 183 184 187 191 191 191 193 195 197 198 198 199 201 201 203
182 182 184 185 185 186 187 188 190 193 194 196 200 198 198 195 194 198 200 205 206 204 204 198 192 188 186 193 198 194 192 196 198 192 184 183 185 181 177 170 166 168 167 166 163 158 157 152 140 130 134 143 144 146 155 186 196 121 63 98 151 161 166 170 174 179 185 186 180 180 183 184 187 193 196 196 197 199 202 203 202 204 206 206 207
181 181 184 184 186 187 187 188 190 192 193 196 200 199 198 196 196 199 198 202 203 201 202 199 197 196 192 196 202 203 203 199 196 194 190 188 190 187 183 181 178 177 177 173 167 165 160 147 136 137 149 165 178 161 153 201 198 105 65 133 154 154 160 164 165 171 181 184 179 178 181 179 183 192 199 202 203 203 205 207 208 209 211 212 212
181 181 182 183 185 188 188 189 191 192 193 196 199 199 200 197 197 199 197 199 201 201 201 201 204 200 196 200 204 207 207 203 199 200 199 196 195 193 187 189 187 183 185 181 170 166 169 161 150 153 167 180 198 186 146 168 177 114 96 145 154 154 159 162 164 169 175 179 178 177 176 173 176 185 196 203 207 209 208 209 212 214 216 218 216
183 183 183 185 185 187 189 190 191 192 193 195 198 200 202 200 199 200 198 199 202 201 201 203 204 200 196 201 206 208 208 206 204 205 207 203 201 202 198 197 193 186 187 185 176 172 176 178 174 172 171 174 195 204 187 178 188 146 129 147 156 159 162 164 167 171 173 174 175 176 176 177 181 186 187 191 201 212 214 213 214 216 220 222 223
185 185 185 185 186 188 189 190 191 192 193 195 197 200 202 201 200 199 199 200 200 199 203 204 201 200 198 200 204 206 208 209 208 208 209 209 208 206 207 208 204 198 197 194 186 184 184 183 183 182 172 171 180 172 189 224 225 170 147 153 159 162 165 170 174 175 176 178 177 176 177 183 192 196 191 188 190 208 218 217 217 217 220 224 227
186 187 186 186 187 188 188 190 191 191 192 194 194 197 199 198 197 196 198 200 200 200 205 206 202 203 203 203 205 206 208 209 209 210 210 213 210 206 209 212 211 208 209 206 192 188 193 187 178 179 180 181 180 155 128 168 150 133 144 154 159 163 166 172 177 178 180 183 181 178 180 186 193 194 191 191 191 201 216 219 220 220 222 226 228
186 187 187 187 188 188 187 188 190 190 191 192 192 192 194 195 195 196 198 200 201 202 205 207 207 208 208 208 208 209 208 206 209 211 210 211 209 206 208 211 212 212 214 212 195 190 197 192 179 180 193 188 181 173 152 149 135 126 137 150 158 166 171 172 176 181 184 184 182 181 182 187 189 184 185 190 193 203 214 216 220 223 226 230 231
185 186 187 189 189 189 189 189 189 189 191 192 192 192 193 194 194 196 198 200 203 202 202 205 208 211 212 211 210 211 210 206 207 211 211 209 208 208 208 208 213 214 214 213 205 201 198 194 189 188 193 187 181 175 167 162 146 137 139 141 151 164 173 179 183 189 191 188 188 187 186 192 192 184 184 189 194 199 203 203 205 212 222 231 235
185 187 188 189 190 191 192 191 190 190 192 194 194 194 195 196 196 197 198 200 203 203 203 204 209 213 213 212 213 212 211 208 205 209 212 211 210 210 208 209 215 217 214 211 209 206 202 201 201 197 193 190 186 185 190 193 175 151 140 136 156 149 167 193 194 197 200 195 197 197 197 200 197 190 188 189 192 191 190 193 195 201 210 222 232
184 186 188 188 190 191 193 192 192 192 193 195 196 196 196 196 198 200 200 202 204 203 203 205 211 213 211 211 214 214 212 209 205 207 212 214 214 213 213 213 216 219 217 214 210 206 204 204 203 199 196 196 195 200 207 198 178 160 144 123 148 125 131 212 202 205 204 194 198 202 202 203 199 194 192 189 192 192 189 188 191 197 199 203 219
183 185 188 188 190 191 193 193 193 194 194 195 196 195 193 193 195 197 198 201 202 201 202 207 209 209 209 210 213 214 212 210 207 208 212 215 215 214 215 216 217 221 220 219 216 211 209 207 204 198 197 202 202 201 201 197 193 185 170 136 123 132 222 196 190 211 213 198 197 198 193 192 191 191 191 189 193 198 198 191 188 191 193 198 210
185 186 188 189 189 190 191 192 192 194 194 194 193 193 192 191 190 189 189 192 195 199 202 206 206 206 208 210 211 212 212 211 211 212 214 216 215 215 216 217 220 221 221 222 221 218 215 213 211 203 198 202 204 206 206 203 206 203 200 191 168 181 205 168 149 208 222 202 189 189 184 182 184 188 191 193 196 203 206 202 195 192 195 199 200
188 188 189 189 189 189 190 190 191 193 194 193 192 192 192 192 192 192 191 191 193 198 203 205 206 207 209 210 211 211 212 214 213 213 216 217 216 216 216 218 221 222 221 222 223 223 222 219 217 211 203 203 208 220 217 199 190 197 208 208 190 188 183 172 161 164 184 184 180 183 184 186 189 193 195 197 199 202 204 205 201 196 197 197 192
188 187 188 189 189 188 189 190 190 192 193 192 192 192 192 193 195 196 197 197 198 200 203 205 207 209 210 211 212 212 212 214 215 214 216 217 219 218 217 218 221 223 224 225 226 226 225 222 221 217 212 209 212 222 219 201 191 192 200 203 203 217 192 186 186 172 148 149 184 186 189 191 196 198 198 200 203 202 200 199 200 198 200 201 196
187 188 189 189 189 189 188 189 189 190 192 192 192 193 194 195 196 197 199 202 203 203 203 205 207 210 212 213 212 211 211 212 214 216 216 217 220 220 219 220 222 224 225 228 231 229 228 225 221 218 215 211 212 221 224 214 207 204 205 206 205 206 196 194 193 183 162 154 190 207 190 189 198 201 201 206 208 204 200 199 200 201 203 205 201
187 189 189 190 190 189 188 188 189 189 191 192 192 193 195 197 198 199 201 203 204 204 203 204 206 210 212 212 211 211 210 210 212 216 218 219 221 221 222 223 224 225 226 229 232 231 230 227 222 218 215 213 212 219 226 224 219 219 222 214 203 195 184 180 185 186 173 162 183 213 196 190 202 206 204 209 212 207 202 203 206 205 206 209 207
187 187 188 189 189 189 189 189 190 190 191 193 194 194 196 198 200 202 204 204 203 202 200 202 205 208 210 210 210 210 210 210 211 214 217 219 222 223 223 225 227 228 229 230 231 232 230 225 221 216 215 216 216 219 224 226 224 226 233 224 207 198 188 181 186 189 184 171 171 199 208 206 213 217 212 211 214 213 207 208 214 213 212 214 213